owner,sensor,date,latitude,longitude,air_temperature,qcFlag 
WAVCIS,ioos:station:WAVCIS:CSI06:1,2017-01-01T00:00:00Z,28.8667,-90.4833,22.56,11111222 
WAVCIS,ioos:station:WAVCIS:CSI06:1,2017-01-01T01:00:00Z,28.8667,-90.4833,22.37,11111222 
WAVCIS,ioos:station:WAVCIS:CSI06:1,2017-01-01T02:00:00Z,28.8667,-90.4833,22.23,11111222 
WAVCIS,ioos:station:WAVCIS:CSI06:1,2017-01-01T03:00:00Z,28.8667,-90.4833,22.69,11111222 
WAVCIS,ioos:station:WAVCIS:CSI06:1,2017-01-01T04:00:00Z,28.8667,-90.4833,22.83,11111222 
WAVCIS,ioos:station:WAVCIS:CSI06:1,2017-01-01T05:00:00Z,28.8667,-90.4833,22.94,11111222 
WAVCIS,ioos:station:WAVCIS:CSI06:1,2017-01-01T06:00:00Z,28.8667,-90.4833,22.81,11111222 
WAVCIS,ioos:station:WAVCIS:CSI06:1,2017-01-01T07:00:00Z,28.8667,-90.4833,22.76,11111222 
WAVCIS,ioos:station:WAVCIS:CSI06:1,2017-01-01T08:00:00Z,28.8667,-90.4833,22.87,11111222 
WAVCIS,ioos:station:WAVCIS:CSI06:1,2017-01-01T09:00:00Z,28.8667,-90.4833,22.81,11111222 
WAVCIS,ioos:station:WAVCIS:CSI06:1,2017-01-01T10:00:00Z,28.8667,-90.4833,22.76,11111222 
WAVCIS,ioos:station:WAVCIS:CSI06:1,2017-01-01T11:00:00Z,28.8667,-90.4833,22.73,11111222 
WAVCIS,ioos:station:WAVCIS:CSI06:1,2017-01-01T12:00:00Z,28.8667,-90.4833,22.68,11111222 
WAVCIS,ioos:station:WAVCIS:CSI06:1,2017-01-01T13:00:00Z,28.8667,-90.4833,22.58,11111222 
WAVCIS,ioos:station:WAVCIS:CSI06:1,2017-01-01T14:00:00Z,28.8667,-90.4833,22.77,11111222 
WAVCIS,ioos:station:WAVCIS:CSI06:1,2017-01-01T15:00:00Z,28.8667,-90.4833,22.76,11111222 
WAVCIS,ioos:station:WAVCIS:CSI06:1,2017-01-01T16:00:00Z,28.8667,-90.4833,22.79,11111222 
WAVCIS,ioos:station:WAVCIS:CSI06:1,2017-01-01T17:00:00Z,28.8667,-90.4833,22.97,11111222 
WAVCIS,ioos:station:WAVCIS:CSI06:1,2017-01-01T18:00:00Z,28.8667,-90.4833,22.89,11111222 
WAVCIS,ioos:station:WAVCIS:CSI06:1,2017-01-01T19:00:00Z,28.8667,-90.4833,23.06,11111222 
WAVCIS,ioos:station:WAVCIS:CSI06:1,2017-01-01T20:00:00Z,28.8667,-90.4833,22.88,11111222 
WAVCIS,ioos:station:WAVCIS:CSI06:1,2017-01-01T21:00:00Z,28.8667,-90.4833,23.09,11111222 
WAVCIS,ioos:station:WAVCIS:CSI06:1,2017-01-01T22:00:00Z,28.8667,-90.4833,20.87,11111222 
WAVCIS,ioos:station:WAVCIS:CSI06:1,2017-01-01T23:00:00Z,28.8667,-90.4833,22.72,11111222 
WAVCIS,ioos:station:WAVCIS:CSI06:1,2017-01-02T00:00:00Z,28.8667,-90.4833,23.03,11111222 
WAVCIS,ioos:station:WAVCIS:CSI06:1,2017-01-02T01:00:00Z,28.8667,-90.4833,22.92,11111222 
WAVCIS,ioos:station:WAVCIS:CSI06:1,2017-01-02T02:00:00Z,28.8667,-90.4833,19.98,11111222 
WAVCIS,ioos:station:WAVCIS:CSI06:1,2017-01-02T03:00:00Z,28.8667,-90.4833,19.86,11111222 
WAVCIS,ioos:station:WAVCIS:CSI06:1,2017-01-02T04:00:00Z,28.8667,-90.4833,20.33,11111222 
WAVCIS,ioos:station:WAVCIS:CSI06:1,2017-01-02T05:00:00Z,28.8667,-90.4833,21.96,11111222 
WAVCIS,ioos:station:WAVCIS:CSI06:1,2017-01-02T06:00:00Z,28.8667,-90.4833,22.11,11111222 
WAVCIS,ioos:station:WAVCIS:CSI06:1,2017-01-02T07:00:00Z,28.8667,-90.4833,22.77,11111222 
WAVCIS,ioos:station:WAVCIS:CSI06:1,2017-01-02T08:00:00Z,28.8667,-90.4833,22.96,11111222 
WAVCIS,ioos:station:WAVCIS:CSI06:1,2017-01-02T09:00:00Z,28.8667,-90.4833,22.99,11111222 
WAVCIS,ioos:station:WAVCIS:CSI06:1,2017-01-02T10:00:00Z,28.8667,-90.4833,23.0,11111222 
WAVCIS,ioos:station:WAVCIS:CSI06:1,2017-01-02T11:00:00Z,28.8667,-90.4833,23.17,11111222 
WAVCIS,ioos:station:WAVCIS:CSI06:1,2017-01-02T12:00:00Z,28.8667,-90.4833,23.1,11111222 
WAVCIS,ioos:station:WAVCIS:CSI06:1,2017-01-02T13:00:00Z,28.8667,-90.4833,23.4,11111222 
WAVCIS,ioos:station:WAVCIS:CSI06:1,2017-01-02T14:00:00Z,28.8667,-90.4833,23.29,11111222 
WAVCIS,ioos:station:WAVCIS:CSI06:1,2017-01-02T15:00:00Z,28.8667,-90.4833,23.47,11111222 
WAVCIS,ioos:station:WAVCIS:CSI06:1,2017-01-02T16:00:00Z,28.8667,-90.4833,23.7,11111222 
WAVCIS,ioos:station:WAVCIS:CSI06:1,2017-01-02T17:00:00Z,28.8667,-90.4833,23.75,11111222 
WAVCIS,ioos:station:WAVCIS:CSI06:1,2017-01-02T18:00:00Z,28.8667,-90.4833,23.69,11111222 
WAVCIS,ioos:station:WAVCIS:CSI06:1,2017-01-02T19:00:00Z,28.8667,-90.4833,23.73,11111222 
WAVCIS,ioos:station:WAVCIS:CSI06:1,2017-01-02T20:00:00Z,28.8667,-90.4833,23.71,11111222 
WAVCIS,ioos:station:WAVCIS:CSI06:1,2017-01-02T21:00:00Z,28.8667,-90.4833,23.67,11111222 
WAVCIS,ioos:station:WAVCIS:CSI06:1,2017-01-02T22:00:00Z,28.8667,-90.4833,23.6,11111222 
WAVCIS,ioos:station:WAVCIS:CSI06:1,2017-01-02T23:00:00Z,28.8667,-90.4833,23.44,11111222 
WAVCIS,ioos:station:WAVCIS:CSI06:1,2017-01-03T00:00:00Z,28.8667,-90.4833,23.35,11111222 
WAVCIS,ioos:station:WAVCIS:CSI06:1,2017-01-03T01:00:00Z,28.8667,-90.4833,23.18,11111222 
WAVCIS,ioos:station:WAVCIS:CSI06:1,2017-01-03T02:00:00Z,28.8667,-90.4833,22.75,11111222 
WAVCIS,ioos:station:WAVCIS:CSI06:1,2017-01-03T03:00:00Z,28.8667,-90.4833,23.03,11111222 
WAVCIS,ioos:station:WAVCIS:CSI06:1,2017-01-03T04:00:00Z,28.8667,-90.4833,23.72,11111222 
WAVCIS,ioos:station:WAVCIS:CSI06:1,2017-01-03T05:00:00Z,28.8667,-90.4833,23.49,11111222 
WAVCIS,ioos:station:WAVCIS:CSI06:1,2017-01-03T06:00:00Z,28.8667,-90.4833,23.0,11111222 
WAVCIS,ioos:station:WAVCIS:CSI06:1,2017-01-03T07:00:00Z,28.8667,-90.4833,23.17,11111222 
WAVCIS,ioos:station:WAVCIS:CSI06:1,2017-01-03T08:00:00Z,28.8667,-90.4833,20.79,11111222 
WAVCIS,ioos:station:WAVCIS:CSI06:1,2017-01-03T09:00:00Z,28.8667,-90.4833,19.53,11111222 
WAVCIS,ioos:station:WAVCIS:CSI06:1,2017-01-03T10:00:00Z,28.8667,-90.4833,18.98,11111222 
WAVCIS,ioos:station:WAVCIS:CSI06:1,2017-01-03T11:00:00Z,28.8667,-90.4833,19.0,11111222 
WAVCIS,ioos:station:WAVCIS:CSI06:1,2017-01-03T12:00:00Z,28.8667,-90.4833,19.28,11111222 
WAVCIS,ioos:station:WAVCIS:CSI06:1,2017-01-03T13:00:00Z,28.8667,-90.4833,19.21,11111222 
WAVCIS,ioos:station:WAVCIS:CSI06:1,2017-01-03T14:00:00Z,28.8667,-90.4833,19.43,11111222 
WAVCIS,ioos:station:WAVCIS:CSI06:1,2017-01-03T15:00:00Z,28.8667,-90.4833,20.18,11111222 
WAVCIS,ioos:station:WAVCIS:CSI06:1,2017-01-03T16:00:00Z,28.8667,-90.4833,23.15,11111222 
WAVCIS,ioos:station:WAVCIS:CSI06:1,2017-01-03T17:00:00Z,28.8667,-90.4833,23.63,11111222 
WAVCIS,ioos:station:WAVCIS:CSI06:1,2017-01-03T18:00:00Z,28.8667,-90.4833,20.66,11111222 
WAVCIS,ioos:station:WAVCIS:CSI06:1,2017-01-03T19:00:00Z,28.8667,-90.4833,20.76,11111222 
WAVCIS,ioos:station:WAVCIS:CSI06:1,2017-01-03T20:00:00Z,28.8667,-90.4833,20.73,11111222 
WAVCIS,ioos:station:WAVCIS:CSI06:1,2017-01-03T21:00:00Z,28.8667,-90.4833,20.62,11111222 
WAVCIS,ioos:station:WAVCIS:CSI06:1,2017-01-03T22:00:00Z,28.8667,-90.4833,20.85,11111222 
WAVCIS,ioos:station:WAVCIS:CSI06:1,2017-01-03T23:00:00Z,28.8667,-90.4833,20.35,11111222 
WAVCIS,ioos:station:WAVCIS:CSI06:1,2017-01-04T00:00:00Z,28.8667,-90.4833,20.41,11111222 
WAVCIS,ioos:station:WAVCIS:CSI06:1,2017-01-04T01:00:00Z,28.8667,-90.4833,20.53,11111222 
WAVCIS,ioos:station:WAVCIS:CSI06:1,2017-01-04T02:00:00Z,28.8667,-90.4833,20.67,11111222 
WAVCIS,ioos:station:WAVCIS:CSI06:1,2017-01-04T03:00:00Z,28.8667,-90.4833,20.85,11111222 
WAVCIS,ioos:station:WAVCIS:CSI06:1,2017-01-04T04:00:00Z,28.8667,-90.4833,20.81,11111222 
WAVCIS,ioos:station:WAVCIS:CSI06:1,2017-01-04T05:00:00Z,28.8667,-90.4833,20.69,11111222 
WAVCIS,ioos:station:WAVCIS:CSI06:1,2017-01-04T06:00:00Z,28.8667,-90.4833,20.66,11111222 
WAVCIS,ioos:station:WAVCIS:CSI06:1,2017-01-04T07:00:00Z,28.8667,-90.4833,20.28,11111222 
WAVCIS,ioos:station:WAVCIS:CSI06:1,2017-01-04T08:00:00Z,28.8667,-90.4833,19.77,11111222 
WAVCIS,ioos:station:WAVCIS:CSI06:1,2017-01-04T09:00:00Z,28.8667,-90.4833,19.04,11111222 
WAVCIS,ioos:station:WAVCIS:CSI06:1,2017-01-04T10:00:00Z,28.8667,-90.4833,18.03,11111222 
WAVCIS,ioos:station:WAVCIS:CSI06:1,2017-01-04T11:00:00Z,28.8667,-90.4833,18.13,11111222 
WAVCIS,ioos:station:WAVCIS:CSI06:1,2017-01-04T12:00:00Z,28.8667,-90.4833,16.88,11111222 
WAVCIS,ioos:station:WAVCIS:CSI06:1,2017-01-04T13:00:00Z,28.8667,-90.4833,15.57,11111222 
WAVCIS,ioos:station:WAVCIS:CSI06:1,2017-01-04T14:00:00Z,28.8667,-90.4833,15.56,11111222 
WAVCIS,ioos:station:WAVCIS:CSI06:1,2017-01-04T15:00:00Z,28.8667,-90.4833,15.96,11111222 
WAVCIS,ioos:station:WAVCIS:CSI06:1,2017-01-04T16:00:00Z,28.8667,-90.4833,16.29,11111222 
WAVCIS,ioos:station:WAVCIS:CSI06:1,2017-01-04T17:00:00Z,28.8667,-90.4833,16.43,11111222 
WAVCIS,ioos:station:WAVCIS:CSI06:1,2017-01-04T18:00:00Z,28.8667,-90.4833,16.53,11111222 
WAVCIS,ioos:station:WAVCIS:CSI06:1,2017-01-04T19:00:00Z,28.8667,-90.4833,16.86,11111222 
WAVCIS,ioos:station:WAVCIS:CSI06:1,2017-01-04T20:00:00Z,28.8667,-90.4833,17.38,11111222 
WAVCIS,ioos:station:WAVCIS:CSI06:1,2017-01-04T21:00:00Z,28.8667,-90.4833,17.27,11111222 
WAVCIS,ioos:station:WAVCIS:CSI06:1,2017-01-04T22:00:00Z,28.8667,-90.4833,17.44,11111222 
WAVCIS,ioos:station:WAVCIS:CSI06:1,2017-01-04T23:00:00Z,28.8667,-90.4833,17.25,11111222 
WAVCIS,ioos:station:WAVCIS:CSI06:1,2017-01-05T00:00:00Z,28.8667,-90.4833,17.31,11111222 
WAVCIS,ioos:station:WAVCIS:CSI06:1,2017-01-05T01:00:00Z,28.8667,-90.4833,17.36,11111222 
WAVCIS,ioos:station:WAVCIS:CSI06:1,2017-01-05T02:00:00Z,28.8667,-90.4833,17.64,11111222 
WAVCIS,ioos:station:WAVCIS:CSI06:1,2017-01-05T03:00:00Z,28.8667,-90.4833,17.31,11111222 
WAVCIS,ioos:station:WAVCIS:CSI06:1,2017-01-05T04:00:00Z,28.8667,-90.4833,16.17,11111222 
WAVCIS,ioos:station:WAVCIS:CSI06:1,2017-01-05T05:00:00Z,28.8667,-90.4833,15.96,11111222 
WAVCIS,ioos:station:WAVCIS:CSI06:1,2017-01-05T06:00:00Z,28.8667,-90.4833,15.82,11111222 
WAVCIS,ioos:station:WAVCIS:CSI06:1,2017-01-05T07:00:00Z,28.8667,-90.4833,16.02,11111222 
WAVCIS,ioos:station:WAVCIS:CSI06:1,2017-01-05T08:00:00Z,28.8667,-90.4833,16.57,11111222 
WAVCIS,ioos:station:WAVCIS:CSI06:1,2017-01-05T09:00:00Z,28.8667,-90.4833,16.44,11111222 
WAVCIS,ioos:station:WAVCIS:CSI06:1,2017-01-05T10:00:00Z,28.8667,-90.4833,16.62,11111222 
WAVCIS,ioos:station:WAVCIS:CSI06:1,2017-01-05T11:00:00Z,28.8667,-90.4833,16.93,11111222 
WAVCIS,ioos:station:WAVCIS:CSI06:1,2017-01-05T12:00:00Z,28.8667,-90.4833,17.37,11111222 
WAVCIS,ioos:station:WAVCIS:CSI06:1,2017-01-05T13:00:00Z,28.8667,-90.4833,17.42,11111222 
WAVCIS,ioos:station:WAVCIS:CSI06:1,2017-01-05T14:00:00Z,28.8667,-90.4833,18.71,11111222 
WAVCIS,ioos:station:WAVCIS:CSI06:1,2017-01-05T15:00:00Z,28.8667,-90.4833,19.35,11111222 
WAVCIS,ioos:station:WAVCIS:CSI06:1,2017-01-05T16:00:00Z,28.8667,-90.4833,19.8,11111222 
WAVCIS,ioos:station:WAVCIS:CSI06:1,2017-01-05T17:00:00Z,28.8667,-90.4833,20.25,11111222 
WAVCIS,ioos:station:WAVCIS:CSI06:1,2017-01-05T18:00:00Z,28.8667,-90.4833,20.27,11111222 
WAVCIS,ioos:station:WAVCIS:CSI06:1,2017-01-05T19:00:00Z,28.8667,-90.4833,20.57,11111222 
WAVCIS,ioos:station:WAVCIS:CSI06:1,2017-01-05T20:00:00Z,28.8667,-90.4833,20.68,11111222 
WAVCIS,ioos:station:WAVCIS:CSI06:1,2017-01-05T21:00:00Z,28.8667,-90.4833,20.7,11111222 
WAVCIS,ioos:station:WAVCIS:CSI06:1,2017-01-05T22:00:00Z,28.8667,-90.4833,20.9,11111222 
WAVCIS,ioos:station:WAVCIS:CSI06:1,2017-01-05T23:00:00Z,28.8667,-90.4833,20.71,11111222 
WAVCIS,ioos:station:WAVCIS:CSI06:1,2017-01-06T00:00:00Z,28.8667,-90.4833,20.86,11111222 
WAVCIS,ioos:station:WAVCIS:CSI06:1,2017-01-06T01:00:00Z,28.8667,-90.4833,20.99,11111222 
WAVCIS,ioos:station:WAVCIS:CSI06:1,2017-01-06T02:00:00Z,28.8667,-90.4833,21.13,11111222 
WAVCIS,ioos:station:WAVCIS:CSI06:1,2017-01-06T03:00:00Z,28.8667,-90.4833,21.24,11111222 
WAVCIS,ioos:station:WAVCIS:CSI06:1,2017-01-06T04:00:00Z,28.8667,-90.4833,21.28,11111222 
WAVCIS,ioos:station:WAVCIS:CSI06:1,2017-01-06T05:00:00Z,28.8667,-90.4833,21.34,11111222 
WAVCIS,ioos:station:WAVCIS:CSI06:1,2017-01-06T06:00:00Z,28.8667,-90.4833,21.31,11111222 
WAVCIS,ioos:station:WAVCIS:CSI06:1,2017-01-06T07:00:00Z,28.8667,-90.4833,21.47,11111222 
WAVCIS,ioos:station:WAVCIS:CSI06:1,2017-01-06T08:00:00Z,28.8667,-90.4833,21.58,11111222 
WAVCIS,ioos:station:WAVCIS:CSI06:1,2017-01-06T09:00:00Z,28.8667,-90.4833,19.95,11111222 
WAVCIS,ioos:station:WAVCIS:CSI06:1,2017-01-06T10:00:00Z,28.8667,-90.4833,16.68,11111222 
WAVCIS,ioos:station:WAVCIS:CSI06:1,2017-01-06T11:00:00Z,28.8667,-90.4833,15.5,11111222 
WAVCIS,ioos:station:WAVCIS:CSI06:1,2017-01-06T12:00:00Z,28.8667,-90.4833,15.85,11111222 
WAVCIS,ioos:station:WAVCIS:CSI06:1,2017-01-06T13:00:00Z,28.8667,-90.4833,15.64,11111222 
WAVCIS,ioos:station:WAVCIS:CSI06:1,2017-01-06T14:00:00Z,28.8667,-90.4833,15.56,11111222 
WAVCIS,ioos:station:WAVCIS:CSI06:1,2017-01-06T15:00:00Z,28.8667,-90.4833,14.14,11111222 
WAVCIS,ioos:station:WAVCIS:CSI06:1,2017-01-06T16:00:00Z,28.8667,-90.4833,13.23,11111222 
WAVCIS,ioos:station:WAVCIS:CSI06:1,2017-01-06T17:00:00Z,28.8667,-90.4833,11.3,11111222 
WAVCIS,ioos:station:WAVCIS:CSI06:1,2017-01-06T18:00:00Z,28.8667,-90.4833,10.36,11111222 
WAVCIS,ioos:station:WAVCIS:CSI06:1,2017-01-06T19:00:00Z,28.8667,-90.4833,9.93,11111222 
WAVCIS,ioos:station:WAVCIS:CSI06:1,2017-01-06T20:00:00Z,28.8667,-90.4833,9.24,11111222 
WAVCIS,ioos:station:WAVCIS:CSI06:1,2017-01-06T21:00:00Z,28.8667,-90.4833,8.85,11111222 
WAVCIS,ioos:station:WAVCIS:CSI06:1,2017-01-06T22:00:00Z,28.8667,-90.4833,8.88,11111222 
WAVCIS,ioos:station:WAVCIS:CSI06:1,2017-01-06T23:00:00Z,28.8667,-90.4833,8.88,11111222 
WAVCIS,ioos:station:WAVCIS:CSI06:1,2017-01-07T00:00:00Z,28.8667,-90.4833,8.23,11111222 
WAVCIS,ioos:station:WAVCIS:CSI06:1,2017-01-07T01:00:00Z,28.8667,-90.4833,6.911,11111222 
WAVCIS,ioos:station:WAVCIS:CSI06:1,2017-01-07T02:00:00Z,28.8667,-90.4833,6.306,11111222 
WAVCIS,ioos:station:WAVCIS:CSI06:1,2017-01-07T03:00:00Z,28.8667,-90.4833,5.982,11111222 
WAVCIS,ioos:station:WAVCIS:CSI06:1,2017-01-07T04:00:00Z,28.8667,-90.4833,5.679,11111222 
WAVCIS,ioos:station:WAVCIS:CSI06:1,2017-01-07T05:00:00Z,28.8667,-90.4833,5.888,11111222 
WAVCIS,ioos:station:WAVCIS:CSI06:1,2017-01-07T06:00:00Z,28.8667,-90.4833,5.286,11111222 
WAVCIS,ioos:station:WAVCIS:CSI06:1,2017-01-07T07:00:00Z,28.8667,-90.4833,4.021,11111222 
WAVCIS,ioos:station:WAVCIS:CSI06:1,2017-01-07T08:00:00Z,28.8667,-90.4833,2.747,11111222 
WAVCIS,ioos:station:WAVCIS:CSI06:1,2017-01-07T09:00:00Z,28.8667,-90.4833,2.382,11111222 
WAVCIS,ioos:station:WAVCIS:CSI06:1,2017-01-07T10:00:00Z,28.8667,-90.4833,1.61,11111222 
WAVCIS,ioos:station:WAVCIS:CSI06:1,2017-01-07T11:00:00Z,28.8667,-90.4833,0.925,11111222 
WAVCIS,ioos:station:WAVCIS:CSI06:1,2017-01-07T12:00:00Z,28.8667,-90.4833,1.203,11111222 
WAVCIS,ioos:station:WAVCIS:CSI06:1,2017-01-07T13:00:00Z,28.8667,-90.4833,0.739,11111222 
WAVCIS,ioos:station:WAVCIS:CSI06:1,2017-01-07T14:00:00Z,28.8667,-90.4833,0.164,11111222 
WAVCIS,ioos:station:WAVCIS:CSI06:1,2017-01-07T15:00:00Z,28.8667,-90.4833,0.277,11111222 
WAVCIS,ioos:station:WAVCIS:CSI06:1,2017-01-07T16:00:00Z,28.8667,-90.4833,0.627,11111222 
WAVCIS,ioos:station:WAVCIS:CSI06:1,2017-01-07T17:00:00Z,28.8667,-90.4833,0.896,11111222 
WAVCIS,ioos:station:WAVCIS:CSI06:1,2017-01-07T18:00:00Z,28.8667,-90.4833,1.468,11111222 
WAVCIS,ioos:station:WAVCIS:CSI06:1,2017-01-07T19:00:00Z,28.8667,-90.4833,2.119,11111222 
WAVCIS,ioos:station:WAVCIS:CSI06:1,2017-01-07T20:00:00Z,28.8667,-90.4833,3.227,11111222 
WAVCIS,ioos:station:WAVCIS:CSI06:1,2017-01-07T21:00:00Z,28.8667,-90.4833,4.218,11111222 
WAVCIS,ioos:station:WAVCIS:CSI06:1,2017-01-07T22:00:00Z,28.8667,-90.4833,4.897,11111222 
WAVCIS,ioos:station:WAVCIS:CSI06:1,2017-01-07T23:00:00Z,28.8667,-90.4833,5.142,11111222 
WAVCIS,ioos:station:WAVCIS:CSI06:1,2017-01-08T00:00:00Z,28.8667,-90.4833,4.981,11111222 
WAVCIS,ioos:station:WAVCIS:CSI06:1,2017-01-08T01:00:00Z,28.8667,-90.4833,4.517,11111222 
WAVCIS,ioos:station:WAVCIS:CSI06:1,2017-01-08T02:00:00Z,28.8667,-90.4833,4.053,11111222 
WAVCIS,ioos:station:WAVCIS:CSI06:1,2017-01-08T03:00:00Z,28.8667,-90.4833,3.592,11111222 
WAVCIS,ioos:station:WAVCIS:CSI06:1,2017-01-08T04:00:00Z,28.8667,-90.4833,3.567,11111222 
WAVCIS,ioos:station:WAVCIS:CSI06:1,2017-01-08T05:00:00Z,28.8667,-90.4833,3.304,11111222 
WAVCIS,ioos:station:WAVCIS:CSI06:1,2017-01-08T06:00:00Z,28.8667,-90.4833,2.933,11111222 
WAVCIS,ioos:station:WAVCIS:CSI06:1,2017-01-08T07:00:00Z,28.8667,-90.4833,3.02,11111222 
WAVCIS,ioos:station:WAVCIS:CSI06:1,2017-01-08T08:00:00Z,28.8667,-90.4833,2.614,11111222 
WAVCIS,ioos:station:WAVCIS:CSI06:1,2017-01-08T09:00:00Z,28.8667,-90.4833,2.521,11111222 
WAVCIS,ioos:station:WAVCIS:CSI06:1,2017-01-08T10:00:00Z,28.8667,-90.4833,2.385,11111222 
WAVCIS,ioos:station:WAVCIS:CSI06:1,2017-01-08T11:00:00Z,28.8667,-90.4833,2.476,11111222 
WAVCIS,ioos:station:WAVCIS:CSI06:1,2017-01-08T12:00:00Z,28.8667,-90.4833,2.678,11111222 
WAVCIS,ioos:station:WAVCIS:CSI06:1,2017-01-08T13:00:00Z,28.8667,-90.4833,2.906,11111222 
WAVCIS,ioos:station:WAVCIS:CSI06:1,2017-01-08T14:00:00Z,28.8667,-90.4833,2.744,11111222 
WAVCIS,ioos:station:WAVCIS:CSI06:1,2017-01-08T15:00:00Z,28.8667,-90.4833,2.975,11111222 
WAVCIS,ioos:station:WAVCIS:CSI06:1,2017-01-08T16:00:00Z,28.8667,-90.4833,4.052,11111222 
WAVCIS,ioos:station:WAVCIS:CSI06:1,2017-01-08T17:00:00Z,28.8667,-90.4833,5.254,11111222 
WAVCIS,ioos:station:WAVCIS:CSI06:1,2017-01-08T18:00:00Z,28.8667,-90.4833,6.688,11111222 
WAVCIS,ioos:station:WAVCIS:CSI06:1,2017-01-08T19:00:00Z,28.8667,-90.4833,8.06,11111222 
WAVCIS,ioos:station:WAVCIS:CSI06:1,2017-01-08T20:00:00Z,28.8667,-90.4833,8.75,11111222 
WAVCIS,ioos:station:WAVCIS:CSI06:1,2017-01-08T21:00:00Z,28.8667,-90.4833,9.02,11111222 
WAVCIS,ioos:station:WAVCIS:CSI06:1,2017-01-08T22:00:00Z,28.8667,-90.4833,9.36,11111222 
WAVCIS,ioos:station:WAVCIS:CSI06:1,2017-01-08T23:00:00Z,28.8667,-90.4833,9.57,11111222 
WAVCIS,ioos:station:WAVCIS:CSI06:1,2017-01-09T00:00:00Z,28.8667,-90.4833,9.78,11111222 
WAVCIS,ioos:station:WAVCIS:CSI06:1,2017-01-09T01:00:00Z,28.8667,-90.4833,9.87,11111222 
WAVCIS,ioos:station:WAVCIS:CSI06:1,2017-01-09T02:00:00Z,28.8667,-90.4833,10.36,11111222 
WAVCIS,ioos:station:WAVCIS:CSI06:1,2017-01-09T03:00:00Z,28.8667,-90.4833,10.61,11111222 
WAVCIS,ioos:station:WAVCIS:CSI06:1,2017-01-09T04:00:00Z,28.8667,-90.4833,10.76,11111222 
WAVCIS,ioos:station:WAVCIS:CSI06:1,2017-01-09T05:00:00Z,28.8667,-90.4833,9.88,11111222 
WAVCIS,ioos:station:WAVCIS:CSI06:1,2017-01-09T06:00:00Z,28.8667,-90.4833,10.77,11111222 
WAVCIS,ioos:station:WAVCIS:CSI06:1,2017-01-09T07:00:00Z,28.8667,-90.4833,11.55,11111222 
WAVCIS,ioos:station:WAVCIS:CSI06:1,2017-01-09T08:00:00Z,28.8667,-90.4833,12.28,11111222 
WAVCIS,ioos:station:WAVCIS:CSI06:1,2017-01-09T09:00:00Z,28.8667,-90.4833,12.97,11111222 
WAVCIS,ioos:station:WAVCIS:CSI06:1,2017-01-09T10:00:00Z,28.8667,-90.4833,13.59,11111222 
WAVCIS,ioos:station:WAVCIS:CSI06:1,2017-01-09T11:00:00Z,28.8667,-90.4833,13.74,11111222 
WAVCIS,ioos:station:WAVCIS:CSI06:1,2017-01-09T12:00:00Z,28.8667,-90.4833,14.26,11111222 
WAVCIS,ioos:station:WAVCIS:CSI06:1,2017-01-09T13:00:00Z,28.8667,-90.4833,15.44,11111222 
WAVCIS,ioos:station:WAVCIS:CSI06:1,2017-01-09T14:00:00Z,28.8667,-90.4833,16.1,11111222 
WAVCIS,ioos:station:WAVCIS:CSI06:1,2017-01-09T15:00:00Z,28.8667,-90.4833,16.43,11111222 
WAVCIS,ioos:station:WAVCIS:CSI06:1,2017-01-09T16:00:00Z,28.8667,-90.4833,16.74,11111222 
WAVCIS,ioos:station:WAVCIS:CSI06:1,2017-01-09T17:00:00Z,28.8667,-90.4833,16.86,11111222 
WAVCIS,ioos:station:WAVCIS:CSI06:1,2017-01-09T18:00:00Z,28.8667,-90.4833,17.03,11111222 
WAVCIS,ioos:station:WAVCIS:CSI06:1,2017-01-09T19:00:00Z,28.8667,-90.4833,17.17,11111222 
WAVCIS,ioos:station:WAVCIS:CSI06:1,2017-01-09T20:00:00Z,28.8667,-90.4833,17.35,11111222 
WAVCIS,ioos:station:WAVCIS:CSI06:1,2017-01-09T21:00:00Z,28.8667,-90.4833,17.72,11111222 
WAVCIS,ioos:station:WAVCIS:CSI06:1,2017-01-09T22:00:00Z,28.8667,-90.4833,17.91,11111222 
WAVCIS,ioos:station:WAVCIS:CSI06:1,2017-01-09T23:00:00Z,28.8667,-90.4833,17.98,11111222 
WAVCIS,ioos:station:WAVCIS:CSI06:1,2017-01-10T00:00:00Z,28.8667,-90.4833,17.95,11111222 
WAVCIS,ioos:station:WAVCIS:CSI06:1,2017-01-10T01:00:00Z,28.8667,-90.4833,18.14,11111222 
WAVCIS,ioos:station:WAVCIS:CSI06:1,2017-01-10T02:00:00Z,28.8667,-90.4833,18.31,11111222 
WAVCIS,ioos:station:WAVCIS:CSI06:1,2017-01-10T03:00:00Z,28.8667,-90.4833,18.45,11111222 
WAVCIS,ioos:station:WAVCIS:CSI06:1,2017-01-10T04:00:00Z,28.8667,-90.4833,18.71,11111222 
WAVCIS,ioos:station:WAVCIS:CSI06:1,2017-01-10T05:00:00Z,28.8667,-90.4833,19.06,11111222 
WAVCIS,ioos:station:WAVCIS:CSI06:1,2017-01-10T06:00:00Z,28.8667,-90.4833,19.3,11111222 
WAVCIS,ioos:station:WAVCIS:CSI06:1,2017-01-10T07:00:00Z,28.8667,-90.4833,19.38,11111222 
WAVCIS,ioos:station:WAVCIS:CSI06:1,2017-01-10T08:00:00Z,28.8667,-90.4833,19.7,11111222 
WAVCIS,ioos:station:WAVCIS:CSI06:1,2017-01-10T09:00:00Z,28.8667,-90.4833,19.8,11111222 
WAVCIS,ioos:station:WAVCIS:CSI06:1,2017-01-10T10:00:00Z,28.8667,-90.4833,19.91,11111222 
WAVCIS,ioos:station:WAVCIS:CSI06:1,2017-01-10T11:00:00Z,28.8667,-90.4833,20.06,11111222 
WAVCIS,ioos:station:WAVCIS:CSI06:1,2017-01-10T12:00:00Z,28.8667,-90.4833,20.25,11111222 
WAVCIS,ioos:station:WAVCIS:CSI06:1,2017-01-10T13:00:00Z,28.8667,-90.4833,20.43,11111222 
WAVCIS,ioos:station:WAVCIS:CSI06:1,2017-01-10T14:00:00Z,28.8667,-90.4833,20.8,11111222 
WAVCIS,ioos:station:WAVCIS:CSI06:1,2017-01-10T15:00:00Z,28.8667,-90.4833,20.99,11111222 
WAVCIS,ioos:station:WAVCIS:CSI06:1,2017-01-10T16:00:00Z,28.8667,-90.4833,21.16,11111222 
WAVCIS,ioos:station:WAVCIS:CSI06:1,2017-01-10T17:00:00Z,28.8667,-90.4833,21.2,11111222 
WAVCIS,ioos:station:WAVCIS:CSI06:1,2017-01-10T18:00:00Z,28.8667,-90.4833,21.27,11111222 
WAVCIS,ioos:station:WAVCIS:CSI06:1,2017-01-10T19:00:00Z,28.8667,-90.4833,21.47,11111222 
WAVCIS,ioos:station:WAVCIS:CSI06:1,2017-01-10T20:00:00Z,28.8667,-90.4833,21.62,11111222 
WAVCIS,ioos:station:WAVCIS:CSI06:1,2017-01-10T21:00:00Z,28.8667,-90.4833,21.55,11111222 
WAVCIS,ioos:station:WAVCIS:CSI06:1,2017-01-10T22:00:00Z,28.8667,-90.4833,21.68,11111222 
WAVCIS,ioos:station:WAVCIS:CSI06:1,2017-01-10T23:00:00Z,28.8667,-90.4833,21.57,11111222 
WAVCIS,ioos:station:WAVCIS:CSI06:1,2017-01-11T00:00:00Z,28.8667,-90.4833,21.38,11111222 
WAVCIS,ioos:station:WAVCIS:CSI06:1,2017-01-11T01:00:00Z,28.8667,-90.4833,21.39,11111222 
WAVCIS,ioos:station:WAVCIS:CSI06:1,2017-01-11T02:00:00Z,28.8667,-90.4833,21.42,11111222 
WAVCIS,ioos:station:WAVCIS:CSI06:1,2017-01-11T03:00:00Z,28.8667,-90.4833,21.53,11111222 
WAVCIS,ioos:station:WAVCIS:CSI06:1,2017-01-11T04:00:00Z,28.8667,-90.4833,21.47,11111222 
WAVCIS,ioos:station:WAVCIS:CSI06:1,2017-01-11T05:00:00Z,28.8667,-90.4833,21.47,11111222 
WAVCIS,ioos:station:WAVCIS:CSI06:1,2017-01-11T06:00:00Z,28.8667,-90.4833,21.5,11111222 
WAVCIS,ioos:station:WAVCIS:CSI06:1,2017-01-11T07:00:00Z,28.8667,-90.4833,21.42,11111222 
WAVCIS,ioos:station:WAVCIS:CSI06:1,2017-01-11T08:00:00Z,28.8667,-90.4833,21.58,11111222 
WAVCIS,ioos:station:WAVCIS:CSI06:1,2017-01-11T09:00:00Z,28.8667,-90.4833,21.64,11111222 
WAVCIS,ioos:station:WAVCIS:CSI06:1,2017-01-11T10:00:00Z,28.8667,-90.4833,21.61,11111222 
WAVCIS,ioos:station:WAVCIS:CSI06:1,2017-01-11T11:00:00Z,28.8667,-90.4833,21.57,11111222 
WAVCIS,ioos:station:WAVCIS:CSI06:1,2017-01-11T12:00:00Z,28.8667,-90.4833,21.59,11111222 
WAVCIS,ioos:station:WAVCIS:CSI06:1,2017-01-11T13:00:00Z,28.8667,-90.4833,21.74,11111222 
WAVCIS,ioos:station:WAVCIS:CSI06:1,2017-01-11T14:00:00Z,28.8667,-90.4833,21.9,11111222 
WAVCIS,ioos:station:WAVCIS:CSI06:1,2017-01-11T15:00:00Z,28.8667,-90.4833,22.1,11111222 
WAVCIS,ioos:station:WAVCIS:CSI06:1,2017-01-11T16:00:00Z,28.8667,-90.4833,21.69,11111222 
WAVCIS,ioos:station:WAVCIS:CSI06:1,2017-01-11T17:00:00Z,28.8667,-90.4833,22.05,11111222 
WAVCIS,ioos:station:WAVCIS:CSI06:1,2017-01-11T18:00:00Z,28.8667,-90.4833,22.03,11111222 
WAVCIS,ioos:station:WAVCIS:CSI06:1,2017-01-11T19:00:00Z,28.8667,-90.4833,22.32,11111222 
WAVCIS,ioos:station:WAVCIS:CSI06:1,2017-01-11T20:00:00Z,28.8667,-90.4833,22.15,11111222 
WAVCIS,ioos:station:WAVCIS:CSI06:1,2017-01-11T21:00:00Z,28.8667,-90.4833,22.35,11111222 
WAVCIS,ioos:station:WAVCIS:CSI06:1,2017-01-11T22:00:00Z,28.8667,-90.4833,22.49,11111222 
WAVCIS,ioos:station:WAVCIS:CSI06:1,2017-01-11T23:00:00Z,28.8667,-90.4833,22.2,11111222 
WAVCIS,ioos:station:WAVCIS:CSI06:1,2017-01-12T00:00:00Z,28.8667,-90.4833,22.1,11111222 
WAVCIS,ioos:station:WAVCIS:CSI06:1,2017-01-12T01:00:00Z,28.8667,-90.4833,22.01,11111222 
WAVCIS,ioos:station:WAVCIS:CSI06:1,2017-01-12T02:00:00Z,28.8667,-90.4833,22.12,11111222 
WAVCIS,ioos:station:WAVCIS:CSI06:1,2017-01-12T03:00:00Z,28.8667,-90.4833,22.09,11111222 
WAVCIS,ioos:station:WAVCIS:CSI06:1,2017-01-12T04:00:00Z,28.8667,-90.4833,22.1,11111222 